�N����,����,�g�[���i�䏊�j���x,�g�[�����x,��g�[���i��Q���j���x,����
 2004/10/01, 0:00,27.7,58,26.1,24.3
 2004/10/01, 0:15,27.5,59,26.2,24.4
 2004/10/01, 0:30,27.1,62,26.2,24.4
 2004/10/01, 0:45,27.1,63,26.2,24.4
 2004/10/01, 1:00,27.1,63,26.2,24.4
 2004/10/01, 1:15,27,64,26.1,24.4
 2004/10/01, 1:30,26.9,64,26.1,23.6
 2004/10/01, 1:45,26.9,64,26,23.6
 2004/10/01, 2:00,26.8,64,25.9,23.7
 2004/10/01, 2:15,26.7,64,25.8,23.7
 2004/10/01, 2:30,26.5,64,25.7,23.7
 2004/10/01, 2:45,26.5,64,25.7,23.7
 2004/10/01, 3:00,26.4,64,25.6,23.3
 2004/10/01, 3:15,26.3,64,25.6,23.3
 2004/10/01, 3:30,26.1,64,25.5,23.4
 2004/10/01, 3:45,25.9,65,25.4,23.4
 2004/10/01, 4:00,25.8,65,25.3,23.4
 2004/10/01, 4:15,26,64,25.1,23.4
 2004/10/01, 4:30,26.1,63,25.1,23.4
 2004/10/01, 4:45,26.1,62,24.9,23.4
 2004/10/01, 5:00,26,62,24.9,23.4
 2004/10/01, 5:15,25.9,62,24.7,23.5
 2004/10/01, 5:30,25.9,62,24.6,23.5
 2004/10/01, 5:45,25.9,61,24.6,23.5
 2004/10/01, 6:00,25.8,61,24.5,23.5
 2004/10/01, 6:15,25.7,61,24.4,23.5
 2004/10/01, 6:30,25.6,61,24.4,23.5
 2004/10/01, 6:45,25.5,60,24.3,24.1
 2004/10/01, 7:00,25.8,59,24.1,24.1
 2004/10/01, 7:15,25.8,58,24.1,23.9
 2004/10/01, 7:30,25.6,54,24.1,24
 2004/10/01, 7:45,27,55,24,23.9
 2004/10/01, 8:00,26.5,57,23.9,23.6
 2004/10/01, 8:15,26.1,58,23.9,23.6
 2004/10/01, 8:30,26.7,56,23.7,23.8
 2004/10/01, 8:45,26.6,59,23.6,23.8
 2004/10/01, 9:00,26.5,61,23.5,23.8
 2004/10/01, 9:15,26.5,61,23.5,23.4
 2004/10/01, 9:30,26.5,59,23.5,23.5
 2004/10/01, 9:45,26.4,56,23.6,23.5
 2004/10/01,10:00,26.4,53,23.6,23.5
 2004/10/01,10:15,26.2,52,23.7,23.5
 2004/10/01,10:30,26.3,51,23.8,23.5
 2004/10/01,10:45,26.4,51,24.1,23
 2004/10/01,11:00,26.4,51,24.4,23.1
 2004/10/01,11:15,26.6,51,24.8,23.1
 2004/10/01,11:30,26.8,50,25.4,23.1
 2004/10/01,11:45,27.1,52,25.8,23.1
 2004/10/01,12:00,27.4,55,26.1,23.1
 2004/10/01,12:15,27.4,52,26.4,23.1
 2004/10/01,12:30,28,51,26.7,22.9
 2004/10/01,12:45,28.1,51,27.2,23.1
 2004/10/01,13:00,28.2,54,27.6,23.2
 2004/10/01,13:15,28,49,28,23.2
 2004/10/01,13:30,28.1,47,28.4,23.2
 2004/10/01,13:45,28.5,47,28.9,23.2
 2004/10/01,14:00,28.6,45,29.3,23.3
 2004/10/01,14:15,28.8,45,29.7,23.3
 2004/10/01,14:30,29,44,30,23.3
 2004/10/01,14:45,29.1,45,30.4,23.4
 2004/10/01,15:00,29.3,45,30.6,23.4
 2004/10/01,15:15,29.4,46,30.9,22.9
 2004/10/01,15:30,29.6,45,30.9,23
 2004/10/01,15:45,29.8,45,31.1,23
 2004/10/01,16:00,29.9,45,31.2,23.1
 2004/10/01,16:15,29.8,47,31.4,23.5
 2004/10/01,16:30,29.7,48,31.4,23.6
 2004/10/01,16:45,29.6,47,31.3,23.4
 2004/10/01,17:00,30.6,46,30.9,23.5
 2004/10/01,17:15,30.9,46,30.6,23.5
 2004/10/01,17:30,30.3,47,30.3,23.5
 2004/10/01,17:45,30.1,48,30.1,23.6
 2004/10/01,18:00,30.2,50,29.8,23.3
 2004/10/01,18:15,30.4,51,29.6,24.2
 2004/10/01,18:30,30.1,52,29.3,24.2
 2004/10/01,18:45,30.1,55,29.1,24.2
 2004/10/01,19:00,29.8,53,29,24.3
 2004/10/01,19:15,29.6,53,29,24.3
 2004/10/01,19:30,29.5,52,28.9,24
 2004/10/01,19:45,29.4,54,28.8,24.1
 2004/10/01,20:00,29.4,54,28.7,24.1
 2004/10/01,20:15,29.3,53,28.6,24
 2004/10/01,20:30,29.1,55,28.5,24
 2004/10/01,20:45,29.1,55,28.3,24
 2004/10/01,21:00,29,57,28.4,24
 2004/10/01,21:15,29,56,28.5,23.7
 2004/10/01,21:30,28.6,58,28.4,23.7
 2004/10/01,21:45,28.6,58,28.1,23.8
 2004/10/01,22:00,28.6,58,28.1,23.7
 2004/10/01,22:15,28.4,59,28.1,24
 2004/10/01,22:30,28.5,59,28,24
 2004/10/01,22:45,28.5,59,28,24
 2004/10/01,23:00,28.5,60,27.9,23.6
 2004/10/01,23:15,28.5,63,27.8,23.9
 2004/10/01,23:30,28.6,64,28,23.9
 2004/10/01,23:45,28.6,64,28.1,24
 2004/10/02, 0:00,28.5,64,28.2,24
 2004/10/02, 0:15,28.5,64,28.1,23.6
 2004/10/02, 0:30,28.5,64,28,23.6
 2004/10/02, 0:45,28.5,64,28,23.7
 2004/10/02, 1:00,28.4,64,27.9,23.9
 2004/10/02, 1:15,28.4,64,27.8,23.7
 2004/10/02, 1:30,28.4,64,27.7,23.8
 2004/10/02, 1:45,28.3,64,27.7,23.7
 2004/10/02, 2:00,28.3,64,27.7,23.8
 2004/10/02, 2:15,28.2,64,27.6,23.8
 2004/10/02, 2:30,28.1,65,27.6,23.8
 2004/10/02, 2:45,28.1,65,27.6,23.9
 2004/10/02, 3:00,28.1,65,27.5,23.9
 2004/10/02, 3:15,28,65,27.5,23.9
 2004/10/02, 3:30,28,65,27.5,24
 2004/10/02, 3:45,27.9,65,27.4,24
 2004/10/02, 4:00,27.9,65,27.3,24.1
 2004/10/02, 4:15,27.8,65,27.3,24.1
 2004/10/02, 4:30,27.8,65,27.2,24.1
 2004/10/02, 4:45,27.8,65,27.2,24.1
 2004/10/02, 5:00,27.7,65,27.2,24.2
 2004/10/02, 5:15,27.7,65,27.1,24.2
 2004/10/02, 5:30,27.6,65,27.1,24.2
 2004/10/02, 5:45,27.5,65,27.1,24.3
 2004/10/02, 6:00,27.6,65,27,24.3
 2004/10/02, 6:15,27.5,65,27,24.3
 2004/10/02, 6:30,27.5,65,27,24.3
 2004/10/02, 6:45,27.4,65,26.8,24.4
 2004/10/02, 7:00,27.3,64,26.7,24.4
 2004/10/02, 7:15,27.4,63,26.7,24.1
 2004/10/02, 7:30,27.3,63,26.7,24.5
 2004/10/02, 7:45,28.5,60,26.7,24.5
 2004/10/02, 8:00,28.3,61,26.6,24.5
 2004/10/02, 8:15,28.1,62,26.6,24.4
 2004/10/02, 8:30,27.8,63,26.5,24.4
 2004/10/02, 8:45,27.7,64,26.5,24.1
 2004/10/02, 9:00,27.5,62,26.4,24.1
 2004/10/02, 9:15,27.7,61,26.4,24.1
 2004/10/02, 9:30,27.7,58,26.3,23.7
 2004/10/02, 9:45,27.5,66,26.2,23.7
 2004/10/02,10:00,27.2,60,26.2,23.7
 2004/10/02,10:15,27.2,59,26.1,23.7
 2004/10/02,10:30,27.1,60,26.1,23.7
 2004/10/02,10:45,27,60,26,23.8
 2004/10/02,11:00,26.9,60,26,23.4
 2004/10/02,11:15,26.9,60,26,23.4
 2004/10/02,11:30,26.9,60,25.9,23.5
 2004/10/02,11:45,26.9,59,25.9,23.5
 2004/10/02,12:00,26.8,60,25.9,23.5
 2004/10/02,12:15,26.8,59,26,23.3
 2004/10/02,12:30,26.7,60,26,23.3
 2004/10/02,12:45,26.7,61,26.1,23.3
 2004/10/02,13:00,27.5,59,26.2,23.3
 2004/10/02,13:15,27.3,58,26.3,23.4
 2004/10/02,13:30,27.1,59,26.4,23.4
 2004/10/02,13:45,27.1,60,26.6,23.7
 2004/10/02,14:00,27.2,57,26.7,23.7
 2004/10/02,14:15,27.3,57,27,23.7
 2004/10/02,14:30,27.3,57,27.5,23.7
 2004/10/02,14:45,27.3,57,27.7,23.8
 2004/10/02,15:00,27.3,57,27.7,23.8
 2004/10/02,15:15,27.4,57,27.8,23.8
 2004/10/02,15:30,27.3,59,27.8,23.8
 2004/10/02,15:45,27.4,59,27.9,23.8
 2004/10/02,16:00,27.4,57,28.1,23.3
 2004/10/02,16:15,27.3,58,28.2,23.3
 2004/10/02,16:30,27.3,57,28,23.4
 2004/10/02,16:45,27.1,57,28.1,23.4
 2004/10/02,17:00,27.1,57,28,23.3
 2004/10/02,17:15,27.8,75,27.9,23.4
 2004/10/02,17:30,28,54,27.8,24.3
 2004/10/02,17:45,28,56,27.7,23.8
 2004/10/02,18:00,28.3,57,27.6,23.8
 2004/10/02,18:15,28.5,59,27.6,23.7
 2004/10/02,18:30,28.6,60,27.5,23.8
 2004/10/02,18:45,28.5,59,27.5,24
 2004/10/02,19:00,28.5,59,27.4,24
 2004/10/02,19:15,28.4,57,27.4,24.1
 2004/10/02,19:30,28.2,56,27.5,24.1
 2004/10/02,19:45,28.2,57,27.5,24.1
 2004/10/02,20:00,28.1,57,27.1,24.1
 2004/10/02,20:15,28.1,58,27.3,24.1
 2004/10/02,20:30,28.1,59,27.2,24.1
 2004/10/02,20:45,27.8,59,27.2,24
 2004/10/02,21:00,27.8,59,27.1,23.9
 2004/10/02,21:15,27.8,59,27.2,23.7
 2004/10/02,21:30,27.9,59,27.4,23.7
 2004/10/02,21:45,27.9,59,27.4,23.8
 2004/10/02,22:00,28.1,60,27.4,23.8
 2004/10/02,22:15,27.8,58,27.2,23.9
 2004/10/02,22:30,27.6,57,27.4,23.9
 2004/10/02,22:45,27.5,57,27.5,23.9
 2004/10/02,23:00,27.4,57,27.5,23.7
 2004/10/02,23:15,27.4,58,27.2,23.7
 2004/10/02,23:30,27.3,60,26.9,23.7
 2004/10/02,23:45,27.3,61,26.7,23.7
 2004/10/03, 0:00,27.2,59,26.2,23.8
 2004/10/03, 0:15,27.1,60,26.6,24.1
 2004/10/03, 0:30,26.9,61,26.8,24.1
 2004/10/03, 0:45,26.9,61,26.8,24.1
 2004/10/03, 1:00,26.9,61,26.8,24.1
 2004/10/03, 1:15,26.8,61,26.8,24.1
 2004/10/03, 1:30,26.7,61,26.7,23.7
 2004/10/03, 1:45,26.6,60,26.7,23.7
 2004/10/03, 2:00,26.5,60,26.6,23.7
 2004/10/03, 2:15,26.5,60,26.5,23.7
 2004/10/03, 2:30,26.3,60,26.5,23.7
 2004/10/03, 2:45,26.2,60,26.5,23.4
 2004/10/03, 3:00,26.1,59,26.3,23.5
 2004/10/03, 3:15,26.2,59,26.1,23.5
 2004/10/03, 3:30,26.2,58,26.1,23.5
 2004/10/03, 3:45,26.2,58,25.8,23.5
 2004/10/03, 4:00,26.1,58,25.7,23.5
 2004/10/03, 4:15,26,58,25.6,23.5
 2004/10/03, 4:30,26,58,25.4,23.5
 2004/10/03, 4:45,26,58,25.3,23.5
 2004/10/03, 5:00,26,58,25.2,23.5
 2004/10/03, 5:15,25.8,58,25.2,23.5
 2004/10/03, 5:30,25.8,58,25.1,23.6
 2004/10/03, 5:45,25.7,58,25.1,23.6
 2004/10/03, 6:00,25.7,58,24.9,23.6
 2004/10/03, 6:15,25.6,58,25,23.6
 2004/10/03, 6:30,25.6,58,24.9,23.6
 2004/10/03, 6:45,25.4,57,24.8,23.6
 2004/10/03, 7:00,25.5,56,24.6,23.6
 2004/10/03, 7:15,26.2,55,24.5,23.4
 2004/10/03, 7:30,26.2,54,24.4,23.4
 2004/10/03, 7:45,26.1,56,24.3,23.4
 2004/10/03, 8:00,25.7,55,24.3,23.4
 2004/10/03, 8:15,26.3,52,24.3,23.4
 2004/10/03, 8:30,26,53,24.3,23.9
 2004/10/03, 8:45,26.2,52,24.3,23.9
 2004/10/03, 9:00,24.8,56,24.2,23.9
 2004/10/03, 9:15,25.8,54,24.2,23.9
 2004/10/03, 9:30,25.8,51,24.2,23.9
 2004/10/03, 9:45,25.8,50,24.3,23.9
 2004/10/03,10:00,25.6,50,24.5,23.8
 2004/10/03,10:15,25.5,50,24.5,23.9
 2004/10/03,10:30,25.3,51,24.6,23.9
 2004/10/03,10:45,25.2,51,24.7,23.1
 2004/10/03,11:00,25.3,52,24.8,23.1
 2004/10/03,11:15,25.4,53,24.9,23.1
 2004/10/03,11:30,25.4,54,25,23.3
 2004/10/03,11:45,26.2,52,25.1,23.3
 2004/10/03,12:00,26.7,50,25.1,23.3
 2004/10/03,12:15,26.6,52,24.9,23.3
 2004/10/03,12:30,26.4,53,25.1,23.3
 2004/10/03,12:45,26.3,53,25.1,23.3
 2004/10/03,13:00,27.2,53,25.2,23.6
 2004/10/03,13:15,27.2,51,25.1,23.6
 2004/10/03,13:30,26.9,53,25.1,23.4
 2004/10/03,13:45,26.7,53,25.1,23.6
 2004/10/03,14:00,26.6,53,25,23.6
 2004/10/03,14:15,26.5,53,25,23.6
 2004/10/03,14:30,26.5,53,25,23.6
 2004/10/03,14:45,26.5,53,24.9,23.6
 2004/10/03,15:00,26.7,54,24.9,23.6
 2004/10/03,15:15,26.7,54,24.9,23.6
 2004/10/03,15:30,26.7,53,24.8,23.6
 2004/10/03,15:45,26.6,53,24.8,23.2
 2004/10/03,16:00,26.6,53,24.8,23.2
 2004/10/03,16:15,26.5,53,24.8,23.2
 2004/10/03,16:30,26.4,54,24.8,23.2
 2004/10/03,16:45,26.7,55,24.8,23.2
 2004/10/03,17:00,27.3,55,24.8,23.8
 2004/10/03,17:15,28.4,57,24.8,23.6
 2004/10/03,17:30,28.3,53,24.8,23.7
 2004/10/03,17:45,28.1,53,24.8,23.7
 2004/10/03,18:00,28.2,52,24.9,23.6
 2004/10/03,18:15,28.1,51,25,23.6
 2004/10/03,18:30,28.1,50,25.1,23.6
 2004/10/03,18:45,28,50,25.2,23.4
 2004/10/03,19:00,28.2,52,25,23.3
 2004/10/03,19:15,27.9,53,24.9,23.3
 2004/10/03,19:30,28,54,24.9,23.5
 2004/10/03,19:45,27.8,54,24.9,23.6
 2004/10/03,20:00,27.7,54,24.9,23.7
 2004/10/03,20:15,27.6,54,25,23.6
 2004/10/03,20:30,27.4,54,25,23.6
 2004/10/03,20:45,27.2,54,25.2,23.6
 2004/10/03,21:00,27.1,54,25.2,23.6
 2004/10/03,21:15,27.2,54,25.2,23.6
 2004/10/03,21:30,27.2,54,25.1,23.7
 2004/10/03,21:45,27.1,53,24.9,23.4
 2004/10/03,22:00,27.4,55,24.9,23.4
 2004/10/03,22:15,27.8,54,25.1,23.4
 2004/10/03,22:30,28.3,52,25.2,23.4
 2004/10/03,22:45,27.6,54,25.2,23.4
 2004/10/03,23:00,27.4,55,25.2,23.4
 2004/10/03,23:15,27.3,56,25.1,23.4
 2004/10/03,23:30,27.3,57,25.1,23.4
 2004/10/03,23:45,27,58,25.1,23.4
 2004/10/04, 0:00,26.8,59,25,23.4
 2004/10/04, 0:15,26.7,59,25.1,23.4
 2004/10/04, 0:30,26.7,60,25,23.4
 2004/10/04, 0:45,26.6,60,24.9,23.4
 2004/10/04, 1:00,26.4,61,24.8,23.4
 2004/10/04, 1:15,26.4,61,24.7,23.5
 2004/10/04, 1:30,26.3,61,24.6,23.5
 2004/10/04, 1:45,26.2,62,24.5,23.5
 2004/10/04, 2:00,26.1,62,24.5,23.5
 2004/10/04, 2:15,26,62,24.4,23.5
 2004/10/04, 2:30,25.9,62,24.3,23.5
 2004/10/04, 2:45,25.8,62,24.2,23.5
 2004/10/04, 3:00,25.7,62,24.2,23.5
 2004/10/04, 3:15,25.7,62,24.1,23.5
 2004/10/04, 3:30,25.6,62,24,23.5
 2004/10/04, 3:45,25.6,62,23.9,23.5
 2004/10/04, 4:00,25.5,61,23.9,23.5
 2004/10/04, 4:15,25.4,62,23.8,23.5
 2004/10/04, 4:30,25.3,62,23.8,23.5
 2004/10/04, 4:45,25.3,61,23.8,23.5
 2004/10/04, 5:00,26.6,96,23.7,23.5
 2004/10/04, 5:15,26.6,58,23.6,23.5
 2004/10/04, 5:30,26.5,56,23.6,23.5
 2004/10/04, 5:45,25.7,59,23.6,23.6
 2004/10/04, 6:00,26.4,57,23.6,23.5
 2004/10/04, 6:15,26.5,57,23.5,23.5
 2004/10/04, 6:30,26.4,57,23.6,23.3
 2004/10/04, 6:45,26.3,57,23.5,23.3
 2004/10/04, 7:00,26.2,57,23.5,23.1
 2004/10/04, 7:15,25.8,58,23.4,23.2
 2004/10/04, 7:30,26.3,51,23.4,23.2
 2004/10/04, 7:45,26,48,23.4,23.2
 2004/10/04, 8:00,26.2,48,23.3,23.2
 2004/10/04, 8:15,25.9,49,23.3,23.2
 2004/10/04, 8:30,25.6,49,23.4,23.2
 2004/10/04, 8:45,25.5,51,23.4,23.7
 2004/10/04, 9:00,25.3,50,23.4,23.7
 2004/10/04, 9:15,25.1,50,23.4,23.6
 2004/10/04, 9:30,25,51,23.4,23.6
 2004/10/04, 9:45,24.8,51,23.4,23.6
 2004/10/04,10:00,24.7,52,23.4,23.6
 2004/10/04,10:15,24.8,51,23.4,22.9
 2004/10/04,10:30,24.8,51,23.5,22.9
 2004/10/04,10:45,24.8,51,23.6,22.9
 2004/10/04,11:00,25,51,23.6,22.9
 2004/10/04,11:15,25,51,23.8,22.9
 2004/10/04,11:30,25.2,50,24,22.9
 2004/10/04,11:45,25.3,50,24.2,23
 2004/10/04,12:00,25.6,53,24.4,23
 2004/10/04,12:15,25.7,49,24.7,23
 2004/10/04,12:30,25.9,53,25.1,23
 2004/10/04,12:45,26,50,25.4,22.9
 2004/10/04,13:00,26.1,50,25.7,23.1
 2004/10/04,13:15,26.1,49,26,23.2
 2004/10/04,13:30,26,49,26.2,23.2
 2004/10/04,13:45,25.9,49,26.4,23.2
 2004/10/04,14:00,26,50,26.7,23.2
 2004/10/04,14:15,25.9,50,26.8,23.2
 2004/10/04,14:30,25.9,50,27,23.2
 2004/10/04,14:45,25.9,50,27.3,23.2
 2004/10/04,15:00,25.9,50,27.6,23.2
 2004/10/04,15:15,25.9,49,27.9,23.2
 2004/10/04,15:30,26.1,50,28.1,23.3
 2004/10/04,15:45,26.2,50,28.1,23.1
 2004/10/04,16:00,26,50,28.2,23.1
 2004/10/04,16:15,25.8,50,28.3,23.1
 2004/10/04,16:30,25.8,50,28.3,23.1
 2004/10/04,16:45,25.8,51,28.2,23.1
 2004/10/04,17:00,26.1,49,27.8,23.1
 2004/10/04,17:15,27.3,70,27.5,22.8
 2004/10/04,17:30,27.9,45,27.2,22.8
 2004/10/04,17:45,27.3,48,27,22.9
 2004/10/04,18:00,27.3,48,26.9,22.9
 2004/10/04,18:15,27.5,49,26.7,23
 2004/10/04,18:30,27.7,57,26.5,23
 2004/10/04,18:45,27.7,52,26.4,23.1
 2004/10/04,19:00,27.6,52,26.3,23.1
 2004/10/04,19:15,27.7,53,26.2,23.1
 2004/10/04,19:30,27.5,53,26.1,23.2
 2004/10/04,19:45,27.3,55,26.2,23.2
 2004/10/04,20:00,27.4,55,26.3,22.9
 2004/10/04,20:15,27.3,55,26.2,22.9
 2004/10/04,20:30,27.1,55,26,23
 2004/10/04,20:45,27.2,56,25.9,23.2
 2004/10/04,21:00,27.1,54,26,23.2
 2004/10/04,21:15,27,54,26,23.2
 2004/10/04,21:30,27,54,26.1,23.2
 2004/10/04,21:45,27,55,26,23.2
 2004/10/04,22:00,27.2,57,25.9,23.2
 2004/10/04,22:15,27.1,56,25.9,23.3
 2004/10/04,22:30,26.9,56,26,23.3
 2004/10/04,22:45,26.8,56,26,23.3
 2004/10/04,23:00,26.9,55,26,23.3
 2004/10/04,23:15,26.9,57,25.9,23
 2004/10/04,23:30,26.9,58,25.7,23.1
 2004/10/04,23:45,26.7,59,25.7,23.1
 2004/10/05, 0:00,26.6,59,25.8,23.1
 2004/10/05, 0:15,26.4,61,25.8,23.2
 2004/10/05, 0:30,26.2,63,25.9,23.2
 2004/10/05, 0:45,26,64,25.8,23.2
 2004/10/05, 1:00,26.1,63,25.8,23.2
 2004/10/05, 1:15,26.2,63,25.7,23.1
 2004/10/05, 1:30,26.2,63,25.7,23.2
 2004/10/05, 1:45,26.1,63,25.6,23.2
 2004/10/05, 2:00,26.1,63,25.5,23.2
 2004/10/05, 2:15,26.1,63,25.4,23.2
 2004/10/05, 2:30,26.1,63,25.2,23.2
 2004/10/05, 2:45,26,63,25.2,23
 2004/10/05, 3:00,26,62,25,22.6
 2004/10/05, 3:15,26,62,25,22.7
 2004/10/05, 3:30,25.9,62,25,22.7
 2004/10/05, 3:45,25.9,62,25,22.7
 2004/10/05, 4:00,25.8,62,24.9,22.7
 2004/10/05, 4:15,25.8,62,24.9,22.7
 2004/10/05, 4:30,25.7,62,24.8,22.8
 2004/10/05, 4:45,25.5,63,24.8,22.8
 2004/10/05, 5:00,25.5,62,24.7,22.8
 2004/10/05, 5:15,25.5,62,24.6,22.8
 2004/10/05, 5:30,25.4,62,24.5,22.8
 2004/10/05, 5:45,25.4,62,24.5,22.8
 2004/10/05, 6:00,25.3,62,24.3,22.9
 2004/10/05, 6:15,25.3,62,24.4,22.9
 2004/10/05, 6:30,25.3,62,24.3,22.9
 2004/10/05, 6:45,25.2,62,24.4,23.2
 2004/10/05, 7:00,25.4,62,24.3,22.8
 2004/10/05, 7:15,25.9,61,24.2,23.2
 2004/10/05, 7:30,25.8,61,24.2,23.2
 2004/10/05, 7:45,26.3,61,24.2,23.2
 2004/10/05, 8:00,26.2,60,24.1,23.2
 2004/10/05, 8:15,26,60,24.1,23
 2004/10/05, 8:30,25.9,60,24.1,23.1
 2004/10/05, 8:45,25.8,59,24.1,23.1
 2004/10/05, 9:00,25.6,58,24.1,23.1
 2004/10/05, 9:15,25.5,58,24,23.1
 2004/10/05, 9:30,25.3,58,24,23.1
 2004/10/05, 9:45,25.2,59,24,23.1
 2004/10/05,10:00,25.3,58,24,23.1
 2004/10/05,10:15,25.3,58,24,23.1
 2004/10/05,10:30,25.3,58,24,23
 2004/10/05,10:45,25.2,58,24,23
 2004/10/05,11:00,25.2,59,23.9,23.1
 2004/10/05,11:15,25.1,59,23.9,23.1
 2004/10/05,11:30,25.2,59,23.9,23.1
 2004/10/05,11:45,25.2,59,23.9,23.1
 2004/10/05,12:00,25.5,59,23.9,22.9
 2004/10/05,12:15,25.3,60,23.9,22.9
 2004/10/05,12:30,25.5,60,23.9,22.9
 2004/10/05,12:45,25.5,61,23.9,22.9
 2004/10/05,13:00,25.4,60,23.9,22.9
 2004/10/05,13:15,25.4,59,23.9,22.9
 2004/10/05,13:30,25.2,60,23.9,22.5
 2004/10/05,13:45,25.2,60,23.8,22.5
 2004/10/05,14:00,25.2,60,23.8,22.6
 2004/10/05,14:15,25.2,59,23.8,22.6
 2004/10/05,14:30,25.2,59,23.9,22.6
 2004/10/05,14:45,25.3,59,23.9,22.6
 2004/10/05,15:00,25.2,58,23.9,22.6
 2004/10/05,15:15,25.2,58,23.9,22.2
 2004/10/05,15:30,25.2,58,23.9,22.4
 2004/10/05,15:45,25.1,59,23.9,22.4
 2004/10/05,16:00,25,59,24,22.3
 2004/10/05,16:15,25,59,24,22.3
 2004/10/05,16:30,25.1,58,24,22.4
 2004/10/05,16:45,25,59,24,22.4
 2004/10/05,17:00,25.4,59,23.9,22.4
 2004/10/05,17:15,25.7,58,23.9,22.5
 2004/10/05,17:30,26.8,67,23.8,22.5
 2004/10/05,17:45,27,54,23.9,22.5
 2004/10/05,18:00,26.3,56,23.9,22.5
 2004/10/05,18:15,26.1,57,23.8,22.5
 2004/10/05,18:30,26.3,58,23.7,22.5
 2004/10/05,18:45,26.2,59,23.7,22.5
 2004/10/05,19:00,27.3,57,23.7,23.1
 2004/10/05,19:15,26.8,56,23.7,23.4
 2004/10/05,19:30,26.4,57,23.6,23
 2004/10/05,19:45,26.2,58,23.6,23.1
 2004/10/05,20:00,26.2,58,23.6,23.5
 2004/10/05,20:15,26.5,58,23.6,23.5
 2004/10/05,20:30,26.8,58,23.6,23.5
 2004/10/05,20:45,26.7,59,23.8,23.5
 2004/10/05,21:00,26.8,58,23.8,23.5
 2004/10/05,21:15,26.7,58,23.9,23.5
 2004/10/05,21:30,26.8,58,23.8,23
 2004/10/05,21:45,26.6,59,23.9,23
 2004/10/05,22:00,26.5,58,24.1,23
 2004/10/05,22:15,26.4,58,24.3,23.1
 2004/10/05,22:30,26.3,57,24.3,23.1
 2004/10/05,22:45,26.2,57,24.4,23.1
 2004/10/05,23:00,26.4,57,24.2,22.6
 2004/10/05,23:15,26.5,58,24.1,22.7
 2004/10/05,23:30,26.4,59,24,22.7
 2004/10/05,23:45,26.3,60,23.9,22.7
 2004/10/06, 0:00,26.2,60,24.1,22.7
 2004/10/06, 0:15,26.2,60,24.1,22.7
 2004/10/06, 0:30,26.1,61,24.1,22.7
 2004/10/06, 0:45,26,61,24.2,22.7
 2004/10/06, 1:00,26,61,24.2,22.7
 2004/10/06, 1:15,25.9,61,24.1,22.7
 2004/10/06, 1:30,25.8,62,24,22.8
 2004/10/06, 1:45,25.7,62,23.9,22.8
 2004/10/06, 2:00,25.7,62,23.9,22.8
 2004/10/06, 2:15,25.6,62,23.8,22.8
 2004/10/06, 2:30,25.5,63,23.7,22.8
 2004/10/06, 2:45,25.4,63,23.6,22.8
 2004/10/06, 3:00,25.4,63,23.6,22.8
 2004/10/06, 3:15,25.3,63,23.5,22.8
 2004/10/06, 3:30,25.3,63,23.4,22.8
 2004/10/06, 3:45,25.2,64,23.4,22.8
 2004/10/06, 4:00,25.3,63,23.4,22.8
 2004/10/06, 4:15,25.3,62,23.4,22.8
 2004/10/06, 4:30,25.3,62,23.4,22.9
 2004/10/06, 4:45,25.3,62,23.3,22.9
 2004/10/06, 5:00,25.3,61,23.3,22.9
 2004/10/06, 5:15,25.3,61,23.2,22.9
 2004/10/06, 5:30,25.1,62,23.2,22.9
 2004/10/06, 5:45,24.9,62,23.1,22.9
 2004/10/06, 6:00,25,62,23.1,22.9
 2004/10/06, 6:15,25.1,61,23,22.9
 2004/10/06, 6:30,25.2,60,23,22.1
 2004/10/06, 6:45,25.2,60,22.9,22.2
 2004/10/06, 7:00,25.1,60,22.9,22.2
 2004/10/06, 7:15,25.6,63,22.9,23.3
 2004/10/06, 7:30,25.5,58,22.9,23.2
 2004/10/06, 7:45,25.8,60,22.9,23.2
 2004/10/06, 8:00,25.9,59,23.1,23.2
 2004/10/06, 8:15,25.5,57,23.1,23.2
 2004/10/06, 8:30,25.3,56,23,23.2
 2004/10/06, 8:45,25.3,56,23.1,23.2
 2004/10/06, 9:00,25.1,55,23.1,23.2
 2004/10/06, 9:15,25.1,54,23.1,22.9
 2004/10/06, 9:30,25.4,53,23.2,22.9
 2004/10/06, 9:45,25.3,54,23.2,22.5
 2004/10/06,10:00,24.9,54,23.2,22.5
 2004/10/06,10:15,24.9,53,23.2,22.5
 2004/10/06,10:30,24.8,52,23.2,22.5
 2004/10/06,10:45,24.9,54,23.2,22.4
 2004/10/06,11:00,24.7,55,23.3,22.4
 2004/10/06,11:15,24.7,54,23.3,22.4
 2004/10/06,11:30,24.8,54,23.5,22.4
 2004/10/06,11:45,25,53,23.5,22.4
 2004/10/06,12:00,25.3,51,23.7,22.4
 2004/10/06,12:15,25.3,52,23.7,22.8
 2004/10/06,12:30,25,53,23.7,22.8
 2004/10/06,12:45,25,55,23.7,22.8
 2004/10/06,13:00,24.9,56,23.8,22.3
 2004/10/06,13:15,25.2,55,24,22.3
 2004/10/06,13:30,25.2,54,24,22.3
 2004/10/06,13:45,25.2,54,24.2,22.3
 2004/10/06,14:00,25.2,54,24.2,22.3
 2004/10/06,14:15,25.2,54,24.2,22.2
 2004/10/06,14:30,25.2,54,24.6,22.2
 2004/10/06,14:45,25.1,54,24.4,22.2
 2004/10/06,15:00,25.1,53,24.4,22.2
 2004/10/06,15:15,25,53,24.7,22.2
 2004/10/06,15:30,24.9,54,24.6,22.2
 2004/10/06,15:45,24.8,54,24.5,22.3
 2004/10/06,16:00,24.9,54,24.5,22.4
 2004/10/06,16:15,25.1,53,24.8,22.4
 2004/10/06,16:30,25.2,54,24.8,22.5
 2004/10/06,16:45,25.4,53,24.6,22.5
 2004/10/06,17:00,26.7,63,24.5,22.5
 2004/10/06,17:15,26.9,49,24.5,22.5
 2004/10/06,17:30,26.5,50,24.4,22.5
 2004/10/06,17:45,26.4,50,24.3,22.2
 2004/10/06,18:00,26.8,51,24.4,22.4
 2004/10/06,18:15,26.6,53,24.3,22.4
 2004/10/06,18:30,26.5,53,24.3,22.5
 2004/10/06,18:45,26.5,53,24.2,22.6
 2004/10/06,19:00,26.6,55,24.2,22.6
 2004/10/06,19:15,26.6,54,24.1,23.3
 2004/10/06,19:30,26.6,53,24.2,23.3
 2004/10/06,19:45,26.4,53,24.2,23.3
 2004/10/06,20:00,26.3,54,24.2,22.9
 2004/10/06,20:15,26.2,55,24.4,22.9
 2004/10/06,20:30,26.1,56,24.4,22.9
 2004/10/06,20:45,26,56,24.3,22.9
 2004/10/06,21:00,26,56,24.2,22.9
 2004/10/06,21:15,25.9,57,24.2,22.8
 2004/10/06,21:30,25.8,57,24.3,22.8
 2004/10/06,21:45,25.7,57,24.3,22.4
 2004/10/06,22:00,25.7,58,24.2,22.5
 2004/10/06,22:15,25.7,57,24.1,22.5
 2004/10/06,22:30,26.2,57,24,22.5
 2004/10/06,22:45,26.5,56,23.9,22.5
 2004/10/06,23:00,26.3,57,23.8,22.5
 2004/10/06,23:15,26,59,23.7,22.5
 2004/10/06,23:30,25.8,60,23.6,22.8
 2004/10/06,23:45,25.6,61,23.7,22.8
 2004/10/07, 0:00,25.6,61,23.7,22.8
 2004/10/07, 0:15,25.5,61,23.7,22.8
 2004/10/07, 0:30,25.2,62,23.9,22.9
 2004/10/07, 0:45,25,63,23.7,22.8
 2004/10/07, 1:00,24.8,64,23.6,22.9
 2004/10/07, 1:15,24.8,64,23.4,22.8
 2004/10/07, 1:30,24.9,63,23.3,22.8
 2004/10/07, 1:45,24.9,63,23.2,22.9
 2004/10/07, 2:00,24.8,64,23.1,22.9
 2004/10/07, 2:15,24.7,64,23.1,22.9
 2004/10/07, 2:30,24.6,64,22.9,22.9
 2004/10/07, 2:45,24.6,63,22.8,22.9
 2004/10/07, 3:00,24.6,63,22.8,22.9
 2004/10/07, 3:15,24.5,63,22.7,22.9
 2004/10/07, 3:30,24.4,63,22.6,22.9
 2004/10/07, 3:45,24.3,63,22.5,22.9
 2004/10/07, 4:00,24.3,63,22.5,22.9
 2004/10/07, 4:15,24.3,62,22.4,22.4
 2004/10/07, 4:30,24.2,62,22.3,22.4
 2004/10/07, 4:45,24.1,62,22.2,22.4
 2004/10/07, 5:00,24.1,62,22.1,22.4
 2004/10/07, 5:15,24,62,22,22.4
 2004/10/07, 5:30,23.9,62,22,22.5
 2004/10/07, 5:45,23.9,62,21.9,22.4
 2004/10/07, 6:00,23.8,62,21.8,22.4
 2004/10/07, 6:15,23.8,62,21.9,22.4
 2004/10/07, 6:30,23.7,62,21.7,22.4
 2004/10/07, 6:45,23.8,61,21.8,22.4
 2004/10/07, 7:00,24.2,61,21.8,22.6
 2004/10/07, 7:15,24.1,60,21.8,22.6
 2004/10/07, 7:30,24.4,58,21.9,22.6
 2004/10/07, 7:45,24.4,60,21.9,23
 2004/10/07, 8:00,24.3,61,22,22.9
 2004/10/07, 8:15,24.2,61,22,22.4
 2004/10/07, 8:30,24.5,62,22,22.4
 2004/10/07, 8:45,24.5,61,22.1,22.2
 2004/10/07, 9:00,24.4,62,22.1,22.3
 2004/10/07, 9:15,24.4,62,22.2,22.3
 2004/10/07, 9:30,24.2,59,22.2,22.3
 2004/10/07, 9:45,24.3,58,22.3,22.3
 2004/10/07,10:00,24.4,58,22.5,22.3
 2004/10/07,10:15,24.4,59,22.5,21.9
 2004/10/07,10:30,24.5,58,22.7,22
 2004/10/07,10:45,24.4,59,22.9,22
 2004/10/07,11:00,24.3,59,23,22
 2004/10/07,11:15,24.4,59,23.1,22
 2004/10/07,11:30,24.7,59,23.4,22.2
 2004/10/07,11:45,25,58,23.6,22.2
 2004/10/07,12:00,25.2,57,23.8,22.2
 2004/10/07,12:15,25.6,59,24,22.2
 2004/10/07,12:30,25.7,57,24.4,22.3
 2004/10/07,12:45,26,56,24.6,22.3
 2004/10/07,13:00,26,55,24.6,22.3
 2004/10/07,13:15,26.1,55,24.6,22.3
 2004/10/07,13:30,26,55,24.7,22.3
 2004/10/07,13:45,25.9,55,24.7,22.3
 2004/10/07,14:00,25.8,55,24.7,21.8
 2004/10/07,14:15,25.7,55,24.7,21.9
 2004/10/07,14:30,25.7,56,24.7,22
 2004/10/07,14:45,25.6,56,24.7,21.9
 2004/10/07,15:00,25.5,56,24.6,21.9
 2004/10/07,15:15,25.5,56,24.6,22.2
 2004/10/07,15:30,25.4,56,24.5,22.6
 2004/10/07,15:45,25.3,56,24.5,22.6
 2004/10/07,16:00,25.2,56,24.5,22.6
 2004/10/07,16:15,25.3,56,24.4,22.6
 2004/10/07,16:30,25.3,57,24.4,22.6
 2004/10/07,16:45,25.6,56,24.4,22.6
 2004/10/07,17:00,26.9,63,24.3,22.3
 2004/10/07,17:15,26.8,52,24.3,22.3
 2004/10/07,17:30,26.3,53,24.3,22.4
 2004/10/07,17:45,26.2,54,24.3,22.4
 2004/10/07,18:00,26.4,54,24.2,22.9
 2004/10/07,18:15,26.6,54,24.2,22.9
 2004/10/07,18:30,26.8,54,24.2,22.3
 2004/10/07,18:45,26.7,55,24.2,22.3
 2004/10/07,19:00,26.6,56,24.1,22.3
 2004/10/07,19:15,26.7,58,24.1,22.3
 2004/10/07,19:30,26.5,58,24.1,22.9
 2004/10/07,19:45,26.5,59,24.1,22.9